Previsão horária em Almásfüzitõ

Hoje, 25 Junho, Sexta-feira

Tempo Temperatura Precipitação Vento Pressão Humidade
00:00 +24°C° 0.1 mm 3 m/s 749 mmHg 66%
01:00 +22°C° 0 mm 3 m/s 749 mmHg 74%
02:00 +21°C° 0 mm 3 m/s 749 mmHg 80%
03:00 +20°C° 0 mm 3 m/s 749 mmHg 87%
04:00 +19°C° 0 mm 4 m/s 750 mmHg 93%
05:00 +20°C° 0 mm 4 m/s 750 mmHg 88%
06:00 +21°C° 0 mm 4 m/s 750 mmHg 83%
07:00 +22°C° 0 mm 5 m/s 751 mmHg 78%
08:00 +25°C° 0 mm 5 m/s 751 mmHg 70%
09:00 +26°C° 0 mm 6 m/s 751 mmHg 62%
10:00 +28°C° 0 mm 6 m/s 751 mmHg 54%
11:00 +29°C° 0 mm 6 m/s 751 mmHg 51%
12:00 +29°C° 0 mm 5 m/s 751 mmHg 48%
13:00 +30°C° 0 mm 5 m/s 751 mmHg 45%
14:00 +30°C° 0 mm 5 m/s 750 mmHg 45%
15:00 +30°C° 0 mm 5 m/s 750 mmHg 45%
16:00 +29°C° 0 mm 6 m/s 750 mmHg 46%
17:00 +28°C° 0 mm 5 m/s 749 mmHg 51%
18:00 +27°C° 0 mm 5 m/s 749 mmHg 56%
19:00 +26°C° 0 mm 4 m/s 749 mmHg 61%
20:00 +23°C° 0 mm 4 m/s 750 mmHg 67%
21:00 +22°C° 0 mm 3 m/s 750 mmHg 73%
22:00 +20°C° 0 mm 2 m/s 751 mmHg 79%
23:00 +20°C° 0 mm 2 m/s 751 mmHg 81%

Amanhã, 26 Junho, Sábado

Tempo Temperatura Precipitação Vento Pressão Humidade
00:00 +19°C° 0 mm 3 m/s 751 mmHg 83%
01:00 +18°C° 0 mm 3 m/s 751 mmHg 85%
02:00 +18°C° 0 mm 3 m/s 751 mmHg 86%
03:00 +17°C° 0 mm 3 m/s 751 mmHg 88%
04:00 +17°C° 0 mm 3 m/s 751 mmHg 89%
05:00 +19°C° 0 mm 4 m/s 752 mmHg 82%
06:00 +20°C° 0 mm 4 m/s 752 mmHg 75%
07:00 +22°C° 0 mm 5 m/s 752 mmHg 68%
08:00 +23°C° 0 mm 5 m/s 752 mmHg 62%
09:00 +26°C° 0 mm 4 m/s 752 mmHg 57%
10:00 +28°C° 0 mm 4 m/s 752 mmHg 51%
11:00 +28°C° 0 mm 4 m/s 752 mmHg 47%
12:00 +29°C° 0 mm 3 m/s 752 mmHg 44%
13:00 +30°C° 0 mm 3 m/s 751 mmHg 40%
14:00 +30°C° 0 mm 3 m/s 751 mmHg 39%
15:00 +31°C° 0 mm 3 m/s 751 mmHg 38%
16:00 +32°C° 0 mm 4 m/s 750 mmHg 37%
17:00 +29°C° 0 mm 4 m/s 751 mmHg 44%
18:00 +27°C° 0 mm 4 m/s 751 mmHg 52%
19:00 +25°C° 0 mm 4 m/s 751 mmHg 59%
20:00 +24°C° 0 mm 3 m/s 751 mmHg 66%
21:00 +21°C° 0 mm 3 m/s 751 mmHg 72%
22:00 +20°C° 0 mm 2 m/s 752 mmHg 79%
23:00 +19°C° 0 mm 2 m/s 752 mmHg 81%

Depois de amanhã, 27 Junho, Domingo

Tempo Temperatura Precipitação Vento Pressão Humidade
00:00 +18°C° 0 mm 2 m/s 752 mmHg 84%
01:00 +18°C° 0 mm 2 m/s 752 mmHg 87%
02:00 +18°C° 0 mm 1 m/s 752 mmHg 89%
03:00 +18°C° 0 mm 1 m/s 752 mmHg 90%
04:00 +18°C° 0 mm 1 m/s 752 mmHg 91%
05:00 +19°C° 0 mm 1 m/s 752 mmHg 84%
06:00 +21°C° 0 mm 1 m/s 752 mmHg 77%
07:00 +23°C° 0 mm 1 m/s 752 mmHg 70%
08:00 +25°C° 0 mm 1 m/s 752 mmHg 64%
09:00 +27°C° 0 mm 1 m/s 752 mmHg 58%
10:00 +28°C° 0 mm 1 m/s 752 mmHg 51%
11:00 +29°C° 0 mm 1 m/s 752 mmHg 47%
12:00 +30°C° 0 mm 1 m/s 752 mmHg 43%
13:00 +31°C° 0 mm 1 m/s 751 mmHg 39%
14:00 +32°C° 0 mm 1 m/s 751 mmHg 37%
15:00 +32°C° 0 mm 1 m/s 751 mmHg 36%
16:00 +32°C° 0 mm 2 m/s 751 mmHg 34%
17:00 +30°C° 0 mm 2 m/s 751 mmHg 40%
18:00 +29°C° 0 mm 2 m/s 751 mmHg 46%
19:00 +27°C° 0 mm 2 m/s 751 mmHg 52%
20:00 +26°C° 0 mm 1 m/s 751 mmHg 54%
21:00 +25°C° 0 mm 1 m/s 751 mmHg 57%
22:00 +23°C° 0 mm 1 m/s 751 mmHg 60%
23:00 +23°C° 0 mm 1 m/s 751 mmHg 61%

28 Junho, Segunda-feira

Tempo Temperatura Precipitação Vento Pressão Humidade
00:00 +22°C° 0 mm 1 m/s 751 mmHg 63%
01:00 +21°C° 0 mm 2 m/s 751 mmHg 65%
02:00 +21°C° 0 mm 2 m/s 751 mmHg 67%
03:00 +20°C° 0 mm 2 m/s 751 mmHg 68%
04:00 +20°C° 0 mm 2 m/s 751 mmHg 70%
05:00 +23°C° 0 mm 2 m/s 751 mmHg 65%
06:00 +24°C° 0 mm 2 m/s 752 mmHg 61%
07:00 +26°C° 0 mm 2 m/s 752 mmHg 56%
08:00 +28°C° 0 mm 2 m/s 752 mmHg 51%
09:00 +30°C° 0 mm 2 m/s 752 mmHg 46%
10:00 +32°C° 0 mm 2 m/s 752 mmHg 40%
11:00 +34°C° 0 mm 3 m/s 751 mmHg 37%
12:00 +35°C° 0 mm 3 m/s 751 mmHg 33%
13:00 +36°C° 0 mm 3 m/s 751 mmHg 29%
14:00 +36°C° 0 mm 3 m/s 750 mmHg 29%
15:00 +36°C° 0 mm 3 m/s 750 mmHg 28%
16:00 +36°C° 0 mm 3 m/s 750 mmHg 27%
17:00 +34°C° 0 mm 3 m/s 750 mmHg 33%
18:00 +31°C° 0 mm 3 m/s 749 mmHg 38%
19:00 +30°C° 0 mm 3 m/s 749 mmHg 44%
20:00 +28°C° 0 mm 3 m/s 749 mmHg 46%
21:00 +27°C° 0 mm 3 m/s 749 mmHg 48%
22:00 +26°C° 0 mm 3 m/s 749 mmHg 49%
23:00 +25°C° 0 mm 3 m/s 749 mmHg 51%

29 Junho, Terça-feira

Tempo Temperatura Precipitação Vento Pressão Humidade
00:00 +24°C° 0 mm 3 m/s 749 mmHg 53%
01:00 +24°C° 0 mm 3 m/s 749 mmHg 55%
02:00 +22°C° 0 mm 4 m/s 749 mmHg 60%
03:00 +21°C° 0 mm 4 m/s 749 mmHg 64%
04:00 +21°C° 0 mm 4 m/s 748 mmHg 69%
05:00 +22°C° 0 mm 3 m/s 749 mmHg 65%
06:00 +25°C° 0 mm 3 m/s 749 mmHg 60%
07:00 +26°C° 0 mm 3 m/s 749 mmHg 56%
08:00 +28°C° 0 mm 3 m/s 749 mmHg 51%
09:00 +30°C° 0 mm 3 m/s 749 mmHg 46%
10:00 +32°C° 0 mm 2 m/s 749 mmHg 41%
11:00 +34°C° 0 mm 2 m/s 748 mmHg 37%
12:00 +36°C° 0 mm 2 m/s 748 mmHg 34%
13:00 +37°C° 0 mm 2 m/s 747 mmHg 30%
14:00 +37°C° 0 mm 3 m/s 747 mmHg 27%
15:00 +38°C° 0 mm 3 m/s 746 mmHg 23%
16:00 +40°C° 0 mm 4 m/s 746 mmHg 20%
17:00 +37°C° 0 mm 3 m/s 745 mmHg 25%
18:00 +34°C° 0 mm 3 m/s 745 mmHg 30%
19:00 +31°C° 0 mm 2 m/s 745 mmHg 36%
20:00 +30°C° 0 mm 2 m/s 745 mmHg 37%
21:00 +29°C° 0 mm 2 m/s 745 mmHg 38%
22:00 +27°C° 0 mm 2 m/s 745 mmHg 39%
23:00 +26°C° 0 mm 2 m/s 745 mmHg 41%

30 Junho, Quarta-feira

Tempo Temperatura Precipitação Vento Pressão Humidade
00:00 +25°C° 0 mm 3 m/s 745 mmHg 44%
01:00 +25°C° 0 mm 3 m/s 746 mmHg 47%
02:00 +22°C° 0 mm 4 m/s 747 mmHg 56%
03:00 +20°C° 0 mm 5 m/s 748 mmHg 66%
04:00 +17°C° 0 mm 6 m/s 748 mmHg 76%
05:00 +19°C° 0 mm 6 m/s 749 mmHg 73%
06:00 +20°C° 0 mm 6 m/s 749 mmHg 69%
07:00 +21°C° 0 mm 6 m/s 749 mmHg 65%
08:00 +22°C° 0 mm 6 m/s 749 mmHg 61%
09:00 +24°C° 0 mm 6 m/s 749 mmHg 57%
10:00 +26°C° 0 mm 6 m/s 749 mmHg 53%
11:00 +28°C° 0 mm 5 m/s 749 mmHg 49%
12:00 +29°C° 0 mm 5 m/s 749 mmHg 45%
13:00 +30°C° 0 mm 4 m/s 748 mmHg 41%
14:00 +30°C° 0 mm 4 m/s 748 mmHg 40%
15:00 +32°C° 0 mm 4 m/s 748 mmHg 39%
16:00 +32°C° 0 mm 4 m/s 748 mmHg 37%
17:00 +29°C° 0 mm 4 m/s 748 mmHg 44%
18:00 +28°C° 0 mm 3 m/s 748 mmHg 50%
19:00 +26°C° 0 mm 3 m/s 747 mmHg 56%
20:00 +25°C° 0 mm 3 m/s 748 mmHg 63%
21:00 +23°C° 0 mm 2 m/s 748 mmHg 69%
22:00 +20°C° 0 mm 2 m/s 748 mmHg 75%
23:00 +21°C° 0 mm 1 m/s 748 mmHg 78%
Mostrar mais